Flag for Malaysia Weather past 2 weeks in Kuching, Malaysia

Now
86 °F

Broken clouds.


Feels Like: 95 °F
Forecast: 79 / 86 °F
Wind: 5 mph from Southeast

Location: Kuching Airport

Current Time: Aug 21, 2014 at 11:20:27 AM

Latest Report: Aug 21, 2014 at 11:00 AM


Visibility: N/A

Pressure: 29.86 "Hg

Humidity: 70%

Dew point: 75 °F

Location of KuchingLocation

Historic Weather in Kuching — Graph

°F

Kuching temperature yesterday

Maximum temperature yesterday: 90 °F (at 2:30 PM)
Minimum temperature yesterday: 73 °F (at 7:00 AM)
Average temperature yesterday: 81 °F

Past Weeks' High & Low Weather Summary

 TemperatureHumidityPressure
High91 °F (Aug 7, 1:00 PM)100% (Aug 7, 4:00 AM)29.95 "Hg (Aug 7, 4:00 AM)
Low73 °F (Aug 6, 10:30 AM)56% (Aug 13, 3:00 PM)29.71 "Hg (Aug 7, 4:30 PM)
Average80 °F85%29.85 "Hg
* Reported Aug 6 10:00 AM — Aug 21 10:00 AM, Kuching, Weather by CustomWeather, © 2014

Note: Actual official high and low records may vary slightly from our data, if they occured in-between our weather recording intervals... More about our weather records

Advertising

Kuching weather history for previous 24 hours

 ConditionsComfort  
Time TempWeatherWind HumidityBarometerVisibility
10:00 AM
Aug 21
84 °FPartly sunny.5 mph74%29.89 "HgN/A
9:30 AM82 °FBroken clouds.3 mph79%29.89 "HgN/A
9:00 AM81 °FBroken clouds.3 mph84%29.89 "HgN/A
8:30 AM81 °FBroken clouds.1 mph84%29.86 "HgN/A
7:30 AM77 °FPartly sunny.2 mph94%29.86 "HgN/A
7:00 AM75 °FBroken clouds.1 mph94%29.83 "HgN/A
6:30 AM75 °FPartly cloudy.1 mph94%29.83 "HgN/A
6:00 AM75 °FPartly cloudy.1 mph94%29.83 "HgN/A
5:30 AM77 °FPartly cloudy.2 mph89%29.83 "HgN/A
5:00 AM77 °FPartly cloudy.2 mph94%29.83 "HgN/A
4:30 AM75 °FPartly cloudy.2 mph100%29.83 "HgN/A
4:00 AM75 °FPartly cloudy.2 mph100%29.83 "HgN/A
3:30 AM77 °FPartly cloudy.2 mph89%29.83 "HgN/A
3:00 AM77 °FPartly cloudy.1 mph94%29.83 "HgN/A
2:30 AM77 °FPartly cloudy.3 mph94%29.83 "HgN/A
2:00 AM77 °FPartly cloudy.2 mph94%29.83 "HgN/A
1:30 AM77 °FPartly cloudy.1 mph94%29.83 "HgN/A
1:00 AM77 °FPassing clouds.2 mph94%29.83 "HgN/A
12:30 AM77 °FPassing clouds.No wind94%29.83 "HgN/A
12:00 AM77 °FPassing clouds.2 mph94%29.86 "HgN/A
11:30 PM
Aug 20
77 °FPassing clouds.2 mph94%29.86 "HgN/A
11:00 PM79 °FPassing clouds.2 mph89%29.86 "HgN/A
10:30 PM79 °FPassing clouds.2 mph89%29.86 "HgN/A
10:00 PM79 °FPassing clouds.3 mph89%29.86 "HgN/A
9:30 PM79 °FPassing clouds.5 mph89%29.86 "HgN/A
9:00 PM81 °FPassing clouds.5 mph84%29.86 "HgN/A
8:30 PM81 °FPassing clouds.2 mph84%29.83 "HgN/A
8:00 PM82 °FPassing clouds.5 mph79%29.83 "HgN/A
7:30 PM82 °FPassing clouds.3 mph84%29.83 "HgN/A
7:00 PM84 °FPassing clouds.5 mph74%29.80 "HgN/A
6:30 PM86 °FPartly sunny.6 mph70%29.80 "HgN/A
6:00 PM88 °FPartly sunny.6 mph62%29.77 "HgN/A
5:30 PM88 °FPartly sunny.6 mph62%29.77 "HgN/A
5:00 PM90 °FBroken clouds.7 mph63%29.77 "HgN/A
4:30 PM90 °FBroken clouds.7 mph63%29.77 "HgN/A
4:00 PM90 °FBroken clouds.7 mph63%29.77 "HgN/A
3:30 PM90 °FBroken clouds.7 mph63%29.77 "HgN/A
3:00 PM90 °FBroken clouds.8 mph63%29.80 "HgN/A
2:30 PM90 °FBroken clouds.6 mph59%29.80 "HgN/A
2:00 PM88 °FBroken clouds.7 mph62%29.83 "HgN/A
1:30 PM86 °FBroken clouds.6 mph70%29.83 "HgN/A
1:00 PM88 °FPartly sunny.7 mph66%29.86 "HgN/A
12:30 PM88 °FPartly sunny.6 mph66%29.86 "HgN/A
12:00 PM86 °FBroken clouds.5 mph70%29.89 "HgN/A
11:30 AM84 °FPartly sunny.6 mph74%29.89 "HgN/A
11:00 AM82 °FPartly sunny.7 mph79%29.92 "HgN/A
Weather by CustomWeather, © 2014

See weather overviewHow to use our weather pages